EW6143 Weather Reports


Display with metric or nautical units.
time (UTC)temp
F
wind
direction
speed
MPH
gust
MPH
rain 1hr
in
rain 24hr
in
rain mn
in
humidity
%
barometer
mb
20260506134528 54 89 4.0 15.0 0.00 0.00 0.00 76 1014.0
20260506133031 54 142 4.0 11.0 0.00 0.00 0.00 77 1013.8
20260506131534 54 120 3.0 10.0 0.00 0.00 0.00 78 1013.6
20260506130030 54 111 7.0 14.0 0.00 0.00 0.00 77 1013.5
20260506124533 54 82 5.0 13.0 0.00 0.00 0.00 76 1013.3
20260506123029 54 167 4.0 14.0 0.00 0.00 0.00 76 1013.2
20260506121527 55 166 6.0 14.0 0.00 0.00 0.00 75 1013.0
20260506120029 55 172 6.0 14.0 0.00 0.00 0.00 74 1013.1
20260506114536 55 171 6.0 13.0 0.00 0.00 0.00 73 1012.5
20260506113028 55 122 3.0 14.0 0.00 0.00 0.00 73 1012.3
20260506111529 55 60 7.0 20.0 0.00 0.00 0.00 72 1012.0
20260506110033 56 135 5.0 13.0 0.00 0.00 0.00 71 1011.9
20260506104526 57 98 5.0 11.0 0.00 0.00 0.00 71 1011.6
20260506103029 57 148 4.0 12.0 0.00 0.00 0.00 70 1011.1
20260506101526 57 142 5.0 11.0 0.00 0.00 0.00 70 1010.9
20260506100029 57 128 5.0 13.0 0.00 0.00 0.00 70 1010.8
20260506094529 57 149 5.0 10.0 0.00 0.00 0.00 70 1010.7
20260506093028 58 158 3.0 10.0 0.00 0.00 0.00 70 1010.6
20260506091526 58 159 4.0 9.0 0.00 0.00 0.00 70 1010.6
20260506090025 58 96 5.0 11.0 0.00 0.00 0.00 70 1010.2
20260506084527 58 155 3.0 9.0 0.00 0.00 0.00 71 1010.1
20260506083027 58 145 3.0 8.0 0.00 0.00 0.00 71 1010.0
20260506081528 58 180 3.0 9.0 0.00 0.00 0.00 71 1009.6
20260506073029 59 165 4.0 12.0 0.00 0.00 0.00 72 1009.8
20260506071528 59 155 7.0 12.0 0.00 0.00 0.00 72 1010.0
20260506061528 61 152 3.0 11.0 0.00 0.00 0.00 73 1009.6
20260506044537 65 165 4.0 11.0 0.00 0.00 0.00 72 1009.4
20260506043027 66 198 5.0 14.0 0.00 0.00 0.00 71 1009.3
20260506041528 67 113 6.0 13.0 0.00 0.00 0.00 71 1008.6
20260506040029 68 124 5.0 11.0 0.00 0.00 0.00 71 1008.8
20260506034528 69 136 3.0 14.0 0.00 0.00 0.00 71 1008.7
20260506033034 70 164 5.0 14.0 0.00 0.00 0.00 70 1008.4
20260506031535 70 140 4.0 11.0 0.00 0.00 0.00 69 1008.0
20260506030050 71 159 5.0 13.0 0.00 0.00 0.00 69 1007.8
20260506024531 73 112 7.0 13.0 0.00 0.00 0.00 68 1007.4
20260506023033 74 136 6.0 11.0 0.00 0.00 0.00 68 1007.0
20260506021528 75 105 2.0 7.0 0.00 0.00 0.00 67 1006.5
20260506020028 75 107 2.0 7.0 0.00 0.00 0.00 66 1006.5
20260506014528 75 118 3.0 10.0 0.00 0.00 0.00 65 1006.2
20260506013031 76 100 2.0 11.0 0.00 0.00 0.00 64 1005.9
20260506011536 76 138 2.0 12.0 0.00 0.00 0.00 63 1005.9
20260506010026 78 149 6.0 13.0 0.00 0.00 0.00 62 1005.5
20260506004543 80 134 4.0 9.0 0.00 0.00 0.00 61 1005.4
20260506003034 81 142 5.0 12.0 0.00 0.00 0.00 60 1005.0
20260506001531 82 54 4.0 13.0 0.00 0.00 0.00 59 1005.1
20260506000026 83 80 1.0 5.0 0.00 0.00 0.00 63 1004.6
20260505234526 83 13 3.0 13.0 0.00 0.00 0.00 68 1004.5
20260505233029 84 329 5.0 15.0 0.00 0.00 0.00 68 1004.2
20260505231529 84 313 5.0 12.0 0.00 0.00 0.00 67 1004.1
20260505230048 84 339 4.0 11.0 0.00 0.00 0.00 67 1003.8
20260505224533 84 315 6.0 12.0 0.00 0.00 0.00 67 1004.0
20260505223027 86 285 5.0 12.0 0.00 0.00 0.00 64 1003.8
20260505221530 86 288 6.0 12.0 0.00 0.00 0.00 63 1003.7
20260505220032 88 292 3.0 9.0 0.00 0.00 0.00 61 1003.9
20260505214534 89 343 3.0 14.0 0.00 0.00 0.00 53 1003.9
20260505213033 88 307 4.0 12.0 0.00 0.00 0.00 58 1003.9
20260505211528 88 327 4.0 12.0 0.00 0.00 0.00 58 1004.2
20260505210029 88 355 6.0 13.0 0.00 0.00 0.00 57 1004.2
20260505204533 88 341 5.0 14.0 0.00 0.00 0.00 59 1004.5
20260505203034 86 335 6.0 13.0 0.00 0.00 0.00 61 1004.6
20260505201534 87 326 6.0 15.0 0.00 0.00 0.00 61 1004.7
20260505200032 86 337 7.0 16.0 0.00 0.00 0.00 62 1004.7
20260505194528 85 10 5.0 16.0 0.00 0.00 0.00 63 1004.8
20260505193028 84 355 7.0 16.0 0.00 0.00 0.00 63 1004.8
20260505191529 84 5 6.0 16.0 0.00 0.00 0.00 66 1005.0
20260505190037 83 315 7.0 15.0 0.00 0.00 0.00 64 1005.0
20260505184531 82 345 7.0 16.0 0.00 0.00 0.00 66 1005.1
20260505183030 82 360 9.0 17.0 0.00 0.00 0.00 66 1005.1
20260505181532 82 344 8.0 15.0 0.00 0.00 0.00 66 1005.2
20260505180037 82 286 8.0 20.0 0.00 0.00 0.00 66 1005.1
20260505174529 82 347 6.0 13.0 0.00 0.00 0.00 66 1005.2
20260505173026 81 18 7.0 18.0 0.00 0.00 0.00 67 1005.4
20260505171528 80 360 9.0 19.0 0.00 0.00 0.00 67 1005.5
20260505170027 80 269 8.0 15.0 0.00 0.00 0.00 68 1005.4
20260505164536 80 340 8.0 18.0 0.00 0.00 0.00 68 1005.3
20260505163034 80 348 8.0 20.0 0.00 0.00 0.00 68 1005.2
20260505161528 79 313 6.0 15.0 0.00 0.00 0.00 70 1005.3
20260505153034 76 9 8.0 17.0 0.00 0.00 0.00 74 1005.2
20260505151530 76 303 5.0 14.0 0.00 0.00 0.00 76 1005.3